User: anonymous   Login
Location: Byszew
(52.1813°N, 19.2693°E)
Time: 23:39:40
(UTC+00:00)
Language:

MOS 1 Rocket - Orbit

View from above orbital plane
View from above orbital plane
View from above satellite
View from above satellite

Ground track
Ground track

The orbit data is extracted from the following two-line orbital elements,

1 17528U 87018B   21128.46898767  .00000128  00000-0  37021-4 0  9994
2 17528  97.4080 305.1836 0151987 162.6797 197.9668 14.51053158805965
Epoch (UTC): 08 May 2021 11:15:20
Eccentricity: 0.0151987
inclination: 97.4080°
perigee height: 614 km
apogee height: 830 km
right ascension of ascending node: 305.1836°
argument of perigee: 162.6797°
revolutions per day: 14.51053158
mean anomaly at epoch: 197.9668°
orbit number at epoch: 80596

The dashed part of the orbit path shows where the satellite is in the earth's shadow,  

DLR